Location: Harmony
(28.2000°N, 81.1500°W)
Time: 02:28:17
(UTC-04:00)

ASC 2 Rocket - Pass Details

Date: 18 December 2017
Orbit: 555 x 2345 km, 24.0° (Epoch: 21 July)

Event Time Altitude Azimuth Distance (km) Brightness Sun altitude
Rises 18:31:59 0° 242° (WSW) 2,872 8.4 -13.0°
Reaches altitude 10° 18:34:33 10° 232° (SW) 1,871 6.8 -13.5°
Maximum altitude 18:38:14 32° 168° (SSE) 960 4.1 -14.3°
Enters shadow 18:40:45 17° 113° (ESE) 1,460 4.5 -14.8°
